Weather History for Chippewa, MI

Change the Weather History Date:

Friday, April 4, 2014

  Actual Average Record
Temperature  
Mean Temperature 30 °F -  
Max Temperature 35 °F 46 °F 57 °F (1981)
Min Temperature 23 °F 22 °F 8 °F (1982)
Degree Days  
Heating Degree Days 36    
Moisture  
Dew Point 29 °F    
Average Humidity 87    
Maximum Humidity 100    
Minimum Humidity 65    
Precipitation  
Precipitation 0.24 in - - ()
Sea Level Pressure  
Sea Level Pressure 29.60 in    
Wind  
Wind Speed 14 mph (ENE)    
Max Wind Speed 25 mph    
Max Gust Speed 37 mph    
Visibility 6 miles    
Events      
Averages and records for this station are not official NWS values.
T = Trace of Precipitation, MM = Missing Value Source: NWS Daily Summary

Daily Weather History Graph

Daily Weather History Graph

Search for Another Location

Airport:

Trip Planner

Search our weather history database for the weather conditions in past years. The results will help you decide how hot, cold, wet, or windy it might be!

Date:

Astronomy

Apr. 04, 2014 Rise Set
Actual Time 7:11 AM EDT 8:10 PM EDT
Civil Twilight 6:41 AM EDT 8:41 PM EDT
Nautical Twilight 6:04 AM EDT 9:18 PM EDT
Astronomical Twilight 5:26 AM EDT 9:56 PM EDT
Moon 10:15 AM EDT (4/4) 12:40 AM EDT (4/4)
Length of Visible Light 14h 00m
Length of Day
12h 58m
Waxing Crescent, 25% of the Moon is Illuminated
Apr 4
Waxing Crescent
Apr 7
First Quarter
Apr 15
Full
Apr 22
Last Quarter
Apr 29
New

Hourly Weather History & Observations

Time (EDT) Temp. Windchill Dew Point Humidity Pressure Visibility Wind Dir Wind Speed Gust Speed Precip Events Conditions
12:15 AM 33.8 °F 27.0 °F 26.6 °F 75% 29.97 in 10.0 mi ENE 8.1 mph - N/A   Overcast
12:35 AM 33.8 °F 26.4 °F 26.6 °F 75% 29.95 in 10.0 mi East 9.2 mph - N/A   Overcast
12:55 AM 33.8 °F 27.7 °F 26.6 °F 75% 29.94 in 10.0 mi East 6.9 mph - N/A   Overcast
1:15 AM 35.6 °F 28.6 °F 26.6 °F 70% 29.94 in 10.0 mi East 9.2 mph - N/A   Overcast
1:35 AM 35.6 °F 29.9 °F 26.6 °F 70% 29.94 in 10.0 mi East 6.9 mph - N/A   Overcast
1:55 AM 35.6 °F 27.1 °F 26.6 °F 70% 29.91 in 10.0 mi East 12.7 mph - N/A   Overcast
2:15 AM 35.6 °F 27.1 °F 26.6 °F 70% 29.90 in 10.0 mi East 12.7 mph - N/A   Overcast
2:35 AM 35.6 °F 24.8 °F 24.8 °F 65% 29.88 in 10.0 mi East 19.6 mph 24.2 mph N/A   Overcast
2:55 AM 35.6 °F 25.2 °F 24.8 °F 65% 29.86 in 10.0 mi East 18.4 mph 25.3 mph N/A   Overcast
3:15 AM 35.6 °F 24.2 °F 24.8 °F 65% 29.84 in 10.0 mi East 21.9 mph 26.5 mph N/A   Overcast
3:35 AM 35.6 °F 24.8 °F 24.8 °F 65% 29.83 in 10.0 mi East 19.6 mph 25.3 mph N/A   Overcast
3:55 AM 35.6 °F 25.2 °F 24.8 °F 65% 29.83 in 10.0 mi East 18.4 mph 25.3 mph N/A   Overcast
4:15 AM 35.6 °F 26.2 °F 24.8 °F 65% 29.82 in 10.0 mi East 15.0 mph 27.6 mph N/A   Overcast
4:35 AM 35.6 °F 26.2 °F 24.8 °F 65% 29.81 in 10.0 mi East 15.0 mph 23.0 mph N/A   Overcast
4:55 AM 35.6 °F 25.9 °F 24.8 °F 65% 29.79 in 10.0 mi East 16.1 mph 24.2 mph N/A   Overcast
5:15 AM 35.6 °F 24.8 °F 24.8 °F 65% 29.78 in 10.0 mi East 19.6 mph 26.5 mph N/A   Overcast
5:35 AM 35.6 °F 25.2 °F 26.6 °F 70% 29.75 in 10.0 mi East 18.4 mph 29.9 mph N/A   Overcast
5:55 AM 35.6 °F 24.5 °F 24.8 °F 65% 29.73 in 10.0 mi East 20.7 mph 32.2 mph N/A   Overcast
6:15 AM 35.6 °F 24.5 °F 26.6 °F 70% 29.73 in 10.0 mi East 20.7 mph 31.1 mph N/A   Overcast
6:35 AM 35.6 °F 23.7 °F 26.6 °F 70% 29.72 in 10.0 mi East 24.2 mph 29.9 mph N/A   Overcast
6:55 AM 33.8 °F 22.5 °F 26.6 °F 75% 29.70 in 10.0 mi East 19.6 mph 28.8 mph N/A   Overcast
7:15 AM 33.8 °F 21.6 °F 24.8 °F 70% 29.67 in 10.0 mi East 23.0 mph 36.8 mph N/A   Overcast
7:35 AM 33.8 °F 21.6 °F 26.6 °F 75% 29.66 in 10.0 mi East 23.0 mph 29.9 mph N/A   Overcast
7:55 AM 33.8 °F 21.0 °F 26.6 °F 75% 29.66 in 10.0 mi East 25.3 mph 32.2 mph N/A   Overcast
8:15 AM 33.8 °F 21.9 °F 26.6 °F 75% 29.67 in 10.0 mi East 21.9 mph 31.1 mph N/A   Overcast
8:35 AM 33.8 °F 21.9 °F 26.6 °F 75% 29.66 in 10.0 mi East 21.9 mph 31.1 mph N/A   Overcast
8:55 AM 33.8 °F 21.3 °F 26.6 °F 75% 29.62 in 10.0 mi East 24.2 mph 35.7 mph N/A   Overcast
9:15 AM 33.8 °F 22.2 °F 26.6 °F 75% 29.60 in 10.0 mi East 20.7 mph 31.1 mph N/A   Overcast
9:35 AM 32.0 °F 20.1 °F 26.6 °F 80% 29.60 in 10.0 mi ESE 19.6 mph 28.8 mph N/A   Overcast
9:55 AM 32.0 °F 20.1 °F 28.4 °F 87% 29.61 in 10.0 mi East 19.6 mph 27.6 mph N/A   Overcast
10:15 AM 32.0 °F 20.1 °F 30.2 °F 93% 29.60 in 2.0 mi East 19.6 mph 26.5 mph N/A   Overcast
10:35 AM 32.0 °F 20.8 °F 30.2 °F 93% 29.57 in 2.0 mi East 17.3 mph 27.6 mph 0.03 in   Overcast
10:55 AM 32.0 °F 20.8 °F 30.2 °F 93% 29.57 in 4.0 mi East 17.3 mph 24.2 mph 0.06 in   Overcast
11:15 AM 32.0 °F 20.1 °F 30.2 °F 93% 29.55 in 7.0 mi East 19.6 mph 23.0 mph 0.01 in   Overcast
11:35 AM 30.2 °F 18.5 °F 30.2 °F 100% 29.58 in 6.0 mi East 17.3 mph 23.0 mph 0.02 in   Overcast
11:55 AM 30.2 °F 19.8 °F 30.2 °F 100% 29.57 in 1.8 mi East 13.8 mph 18.4 mph 0.04 in   Overcast
12:15 PM 30.2 °F 20.2 °F 30.2 °F 100% 29.55 in 1.8 mi East 12.7 mph - 0.01 in   Overcast
12:35 PM 32.0 °F 23.0 °F 32.0 °F 100% 29.55 in 0.5 mi East 11.5 mph 16.1 mph 0.01 in   Overcast
12:55 PM 32.0 °F 23.6 °F 32.0 °F 100% 29.55 in 1.0 mi East 10.4 mph - 0.01 in   Overcast
1:15 PM 32.0 °F 23.6 °F 30.2 °F 93% 29.54 in 0.8 mi East 10.4 mph - N/A   Overcast
1:35 PM 32.0 °F 24.8 °F 32.0 °F 100% 29.54 in 0.5 mi East 8.1 mph - 0.01 in   Overcast
1:55 PM 32.0 °F 23.0 °F 30.2 °F 93% 29.52 in 1.2 mi East 11.5 mph - 0.01 in   Overcast
2:15 PM 32.0 °F 21.6 °F 32.0 °F 100% 29.48 in 0.5 mi ENE 15.0 mph - N/A   Overcast
2:35 PM 32.0 °F 22.5 °F 32.0 °F 100% 29.46 in 2.0 mi ENE 12.7 mph - N/A   Overcast
2:55 PM 32.0 °F 22.5 °F 32.0 °F 100% 29.46 in 1.5 mi East 12.7 mph - 0.01 in   Overcast
3:15 PM 32.0 °F 22.1 °F 32.0 °F 100% 29.44 in 3.0 mi ENE 13.8 mph 18.4 mph N/A   Overcast
3:35 PM 32.0 °F 20.8 °F 32.0 °F 100% 29.39 in 1.5 mi ENE 17.3 mph - 0.02 in   Overcast
3:55 PM 32.0 °F 22.1 °F 32.0 °F 100% 29.38 in 5.0 mi ENE 13.8 mph - 0.03 in   Overcast
4:15 PM 32.0 °F 21.6 °F 32.0 °F 100% 29.35 in 10.0 mi NE 15.0 mph 21.9 mph N/A   Overcast
4:35 PM 32.0 °F 24.2 °F 32.0 °F 100% 29.36 in 10.0 mi NE 9.2 mph 21.9 mph 0.01 in   Overcast
4:55 PM 33.8 °F - 32.0 °F 93% 29.41 in 10.0 mi Calm Calm - 0.02 in   Overcast
5:15 PM 33.8 °F 29.6 °F 32.0 °F 93% 29.41 in 10.0 mi NNE 4.6 mph - 0.01 in   Overcast
5:35 PM 33.8 °F 28.6 °F 32.0 °F 93% 29.42 in 6.0 mi WNW 5.8 mph - 0.02 in   Overcast
5:55 PM 33.8 °F 28.6 °F 32.0 °F 93% 29.42 in 1.5 mi NNW 5.8 mph - 0.02 in   Overcast
6:15 PM 33.8 °F 28.6 °F 33.8 °F 100% 29.42 in 1.2 mi NNW 5.8 mph - 0.01 in   Overcast
6:35 PM 33.8 °F 26.4 °F 33.8 °F 100% 29.41 in 1.2 mi NNW 9.2 mph - 0.02 in   Overcast
6:55 PM 33.8 °F 25.3 °F 33.8 °F 100% 29.41 in 0.8 mi NW 11.5 mph - 0.03 in   Overcast
7:15 PM 32.0 °F 23.6 °F 32.0 °F 100% 29.42 in 1.2 mi NNW 10.4 mph - 0.01 in   Overcast
7:35 PM 32.0 °F 23.0 °F 32.0 °F 100% 29.43 in 3.0 mi NNW 11.5 mph - 0.01 in   Overcast
7:55 PM 30.2 °F 21.3 °F 30.2 °F 100% 29.43 in 8.0 mi NW 10.4 mph - 0.01 in   Overcast
8:15 PM 30.2 °F 20.8 °F 30.2 °F 100% 29.44 in 3.0 mi NW 11.5 mph - N/A   Overcast
8:35 PM 30.2 °F 18.9 °F 30.2 °F 100% 29.45 in 1.8 mi NW 16.1 mph 23.0 mph N/A   Overcast
8:55 PM 28.4 °F 17.0 °F 28.4 °F 100% 29.46 in 2.0 mi NW 15.0 mph - N/A   Overcast
9:15 PM 28.4 °F 15.8 °F 28.4 °F 100% 29.47 in 5.0 mi NNW 18.4 mph - N/A   Overcast
9:35 PM 28.4 °F 16.2 °F 26.6 °F 93% 29.49 in 5.0 mi NW 17.3 mph 20.7 mph N/A   Overcast
9:55 PM 28.4 °F 16.6 °F 28.4 °F 100% 29.49 in 4.0 mi NW 16.1 mph 20.7 mph N/A   Overcast
10:15 PM 28.4 °F 16.2 °F 28.4 °F 100% 29.50 in 9.0 mi NW 17.3 mph 24.2 mph N/A   Overcast
10:35 PM 26.6 °F 14.3 °F 26.6 °F 100% 29.51 in 3.0 mi NW 16.1 mph 27.6 mph N/A   Overcast
10:55 PM 26.6 °F 14.3 °F 26.6 °F 100% 29.52 in 2.5 mi NW 16.1 mph - N/A   Overcast
11:15 PM 24.8 °F 10.7 °F 23.0 °F 93% 29.53 in 1.2 mi NW 19.6 mph 24.2 mph N/A   Overcast
11:35 PM 24.8 °F 10.7 °F 24.8 °F 100% 29.54 in 2.5 mi NW 19.6 mph 31.1 mph N/A   Overcast
11:55 PM 23.0 °F 7.2 °F 23.0 °F 100% 29.55 in 3.0 mi NW 23.0 mph 28.8 mph N/A   Overcast